Courtland, AL

8:19 PM CST on February 07, 2016 (GMT -0600)
Courtland

Weather History for K9A4 - October, 2012

Change the Weather History Date:

Saturday, October 20, 2012

  Actual Average (KMSL) Record (KMSL)
Temperature  
Mean Temperature 54 °F 61 °F  
Max Temperature 68 °F 73 °F 89 °F (1911)
Min Temperature 41 °F 48 °F 28 °F (1917)
Degree Days  
Heating Degree Days 10 6  
Month to date heating degree days 75  
Since 1 July heating degree days 90  
Cooling Degree Days 0 1  
Month to date cooling degree days 50  
Year to date cooling degree days 1852  
Growing Degree Days 4 (Base 50)    
Moisture  
Dew Point 43 °F    
Average Humidity 72    
Maximum Humidity 100    
Minimum Humidity 37    
Precipitation  
Precipitation 0.00 in 0.11 in 4.16 in (1918)
Month to date precipitation 2.11  
Year to date precipitation 41.54  
Snow  
Snow 0.00 in - - ()
Month to date snowfall  
Since 1 July snowfall  
Since 1 September snowfall  
Snow Depth -    
Sea Level Pressure  
Sea Level Pressure 29.96 in    
Wind  
Wind Speed 2 mph (West)    
Max Wind Speed 12 mph    
Max Gust Speed 17 mph    
Visibility 10 miles    
Events      
T = Trace of Precipitation, MM = Missing Value Source: NWS Daily Summary

Daily Weather History Graph

Daily Weather History Graph

Search for Another Location

Airport or City:

Trip Planner

Search our weather history database for the weather conditions in past years. The results will help you decide how hot, cold, wet, or windy it might be!

Date:

Astronomy

Oct. 20, 2012 Rise Set
Actual Time 6:59 AM CDT 6:08 PM CDT
Civil Twilight 6:34 AM CDT 6:33 PM CDT
Nautical Twilight 6:04 AM CDT 7:02 PM CDT
Astronomical Twilight 5:35 AM CDT 7:32 PM CDT
Moon 12:28 PM CDT (10/20) 10:59 PM CDT (10/20)
Length of Visible Light 11h 59m
Length of Day
11h 08m
Waxing Crescent, 34% of the Moon is Illuminated
Oct 20
Waxing Crescent
Oct 21
First Quarter
Oct 29
Full
Nov 6
Last Quarter
Nov 13
New

Hourly Weather History & Observations

Time (CDT) Temp. Windchill Dew Point Humidity Pressure Visibility Wind Dir Wind Speed Gust Speed Precip Events Conditions
12:15 AM 51.8 °F - 41.0 °F 67% 29.88 in 10.0 mi Calm Calm - N/A   Mostly Cloudy
12:35 AM 51.8 °F - 41.0 °F 67% 29.88 in 10.0 mi Calm Calm - N/A   Mostly Cloudy
12:55 AM 48.2 °F - 42.8 °F 82% 29.88 in 10.0 mi West 3.5 mph - N/A   Clear
1:15 AM 46.4 °F - 42.8 °F 87% 29.89 in 10.0 mi Calm Calm - N/A   Clear
1:55 AM 44.6 °F - 42.8 °F 93% 29.89 in 10.0 mi Calm Calm - N/A   Clear
2:15 AM 44.6 °F - 42.8 °F 93% 29.90 in 10.0 mi Calm Calm - N/A   Clear
2:55 AM 42.8 °F - 42.8 °F 100% 29.90 in 10.0 mi Calm Calm - N/A   Clear
3:15 AM 44.6 °F 43.1 °F 42.8 °F 93% 29.91 in 10.0 mi SSW 3.5 mph - N/A   Clear
3:35 AM 44.6 °F - 42.8 °F 93% 29.91 in 10.0 mi Calm Calm - N/A   Clear
3:55 AM 44.6 °F - 42.8 °F 93% 29.91 in 10.0 mi Calm Calm - N/A   Clear
4:15 AM 42.8 °F - 42.8 °F 100% 29.91 in 10.0 mi Calm Calm - N/A   Clear
4:35 AM 42.8 °F 40.1 °F 42.8 °F 100% 29.91 in 10.0 mi SW 4.6 mph - N/A   Clear
4:55 AM 42.8 °F - 41.0 °F 93% 29.91 in 10.0 mi Calm Calm - N/A   Clear
5:15 AM 42.8 °F - 42.8 °F 100% 29.92 in 10.0 mi Calm Calm - N/A   Clear
5:35 AM 42.8 °F - 41.0 °F 93% 29.92 in 10.0 mi Calm Calm - N/A   Clear
5:55 AM 42.8 °F - 41.0 °F 93% 29.93 in 10.0 mi Calm Calm - N/A   Clear
6:15 AM 42.8 °F - 41.0 °F 93% 29.93 in 10.0 mi Calm Calm - N/A   Clear
6:35 AM 42.8 °F - 41.0 °F 93% 29.94 in 10.0 mi Calm Calm - N/A   Clear
6:55 AM 41.0 °F 39.0 °F 41.0 °F 100% 29.94 in 10.0 mi SSW 3.5 mph - N/A   Clear
7:15 AM 41.0 °F - 41.0 °F 100% 29.96 in 10.0 mi Calm Calm - N/A   Clear
7:35 AM 42.8 °F - 41.0 °F 93% 29.96 in 10.0 mi Calm Calm - N/A   Clear
7:55 AM 42.8 °F - 42.8 °F 100% 29.96 in 10.0 mi Calm Calm - N/A   Clear
8:15 AM 46.4 °F 45.2 °F 44.6 °F 93% 29.97 in 10.0 mi SSW 3.5 mph - N/A   Clear
8:35 AM 48.2 °F - 44.6 °F 87% 29.98 in 10.0 mi SSW 3.5 mph - N/A   Clear
8:55 AM 50.0 °F - 44.6 °F 82% 29.99 in 10.0 mi SSW 3.5 mph - N/A   Clear
9:15 AM 53.6 °F - 44.6 °F 72% 29.99 in 10.0 mi Calm Calm - N/A   Clear
9:35 AM 55.4 °F - 44.6 °F 67% 29.99 in 10.0 mi Calm Calm - N/A   Clear
9:55 AM 57.2 °F - 42.8 °F 59% 30.00 in 7.0 mi Calm Calm - N/A   Clear
10:15 AM 59.0 °F - 39.2 °F 48% 30.00 in 10.0 mi West 4.6 mph - N/A   Clear
10:35 AM 59.0 °F - 41.0 °F 51% 30.01 in 10.0 mi West 4.6 mph - N/A   Clear
10:55 AM 60.8 °F - 41.0 °F 48% 30.01 in 10.0 mi West 9.2 mph - N/A   Clear
11:15 AM 60.8 °F - 41.0 °F 48% 30.01 in 10.0 mi West 8.1 mph - N/A   Clear
11:35 AM 62.6 °F - 39.2 °F 42% 30.00 in 10.0 mi NW 8.1 mph - N/A   Clear
11:55 AM 62.6 °F - 41.0 °F 45% 30.00 in 10.0 mi West 11.5 mph - N/A   Clear
12:15 PM 64.4 °F - 39.2 °F 40% 29.99 in 10.0 mi West 9.2 mph 16.1 mph N/A   Clear
12:35 PM 64.4 °F - 41.0 °F 42% 29.99 in 10.0 mi West 6.9 mph - N/A   Clear
12:55 PM 64.4 °F - 41.0 °F 42% 29.98 in 10.0 mi WNW 10.4 mph 17.3 mph N/A   Clear
1:15 PM 64.4 °F - 41.0 °F 42% 29.98 in 10.0 mi WNW 10.4 mph 16.1 mph N/A   Clear
1:35 PM 66.2 °F - 41.0 °F 40% 29.97 in 10.0 mi WNW 9.2 mph - N/A   Clear
1:55 PM 66.2 °F - 41.0 °F 40% 29.96 in 10.0 mi WNW 10.4 mph - N/A   Clear
2:15 PM 68.0 °F - 41.0 °F 37% 29.96 in 10.0 mi WNW 9.2 mph 16.1 mph N/A   Clear
2:35 PM 68.0 °F - 41.0 °F 37% 29.96 in 10.0 mi NW 6.9 mph - N/A   Clear
2:55 PM 68.0 °F - 41.0 °F 37% 29.96 in 10.0 mi West 6.9 mph 16.1 mph N/A   Clear
3:15 PM 68.0 °F - 41.0 °F 37% 29.95 in 10.0 mi NNW 10.4 mph - N/A   Clear
3:35 PM 68.0 °F - 41.0 °F 37% 29.95 in 10.0 mi NW 10.4 mph - N/A   Clear
3:55 PM 68.0 °F - 41.0 °F 37% 29.95 in 10.0 mi NNW 8.1 mph - N/A   Clear
4:15 PM 68.0 °F - 41.0 °F 37% 29.95 in 10.0 mi WNW 3.5 mph - N/A   Clear
4:35 PM 68.0 °F - 41.0 °F 37% 29.95 in 10.0 mi West 9.2 mph - N/A   Clear
4:55 PM 68.0 °F - 41.0 °F 37% 29.95 in 10.0 mi WNW 6.9 mph - N/A   Clear
5:15 PM 68.0 °F - 41.0 °F 37% 29.95 in 10.0 mi NW 6.9 mph - N/A   Clear
5:35 PM 66.2 °F - 41.0 °F 40% 29.95 in 10.0 mi WNW 5.8 mph - N/A   Clear
5:55 PM 64.4 °F - 42.8 °F 45% 29.95 in 10.0 mi NW 5.8 mph - N/A   Clear
6:15 PM 62.6 °F - 42.8 °F 48% 29.96 in 10.0 mi Calm Calm - N/A   Clear
6:35 PM 59.0 °F - 46.4 °F 63% 29.96 in 10.0 mi Calm Calm - N/A   Clear
6:55 PM 55.4 °F - 46.4 °F 72% 29.97 in 10.0 mi Calm Calm - N/A   Clear
7:15 PM 53.6 °F - 48.2 °F 82% 29.98 in 10.0 mi Calm Calm - N/A   Clear
7:35 PM 51.8 °F - 46.4 °F 82% 29.98 in 10.0 mi Calm Calm - N/A   Clear
7:55 PM 51.8 °F - 46.4 °F 82% 29.98 in 10.0 mi Calm Calm - N/A   Clear
8:15 PM 51.8 °F - 46.4 °F 82% 29.99 in 10.0 mi Calm Calm - N/A   Clear
8:35 PM 50.0 °F - 48.2 °F 94% 29.99 in 10.0 mi Calm Calm - N/A   Clear
8:55 PM 50.0 °F - 48.2 °F 94% 29.98 in 10.0 mi Calm Calm - N/A   Clear
9:15 PM 50.0 °F - 46.4 °F 87% 29.99 in 10.0 mi Calm Calm - N/A   Clear
9:35 PM 48.2 °F - 46.4 °F 93% 29.99 in 10.0 mi Calm Calm - N/A   Clear
9:55 PM 48.2 °F - 46.4 °F 93% 30.00 in 10.0 mi Calm Calm - N/A   Clear
10:15 PM 46.4 °F - 46.4 °F 100% 30.00 in 10.0 mi Calm Calm - N/A   Clear
10:35 PM 48.2 °F - 46.4 °F 93% 30.00 in 10.0 mi Calm Calm - N/A   Clear
10:55 PM 46.4 °F 45.2 °F 46.4 °F 100% 30.01 in 10.0 mi SSW 3.5 mph - N/A   Clear
11:15 PM 48.2 °F - 46.4 °F 93% 30.02 in 7.0 mi Calm Calm - N/A   Clear
11:35 PM 46.4 °F - 46.4 °F 100% 30.02 in 10.0 mi Calm Calm - N/A   Clear
11:55 PM 46.4 °F - 46.4 °F 100% 30.02 in 7.0 mi Calm Calm - N/A   Clear